Regional Weather Roundup
Issued by NWS

Home | Current Version | Previous Version | Text Only | Print | Product List | Glossary Off
Versions: 1 2 3 4 5 6 7 8 9 10 11 12 13 14 15 16 17 18 19 20 21 22 23 24 25 26 27 28 29 30 31 32 33 34 35 36 37 38 39 40 41 42 43 44 45 46 47 48 49 50

000
ASUS43 KOAX 202002
RWRNE

WEATHER ROUNDUP FOR NEBRASKA
NATIONAL WEATHER SERVICE OMAHA NE
300 PM CDT THU JUL 20 2017

NOTES: SATELLITE DATA IS BEING USED TO AUGMENT CLOUD COVER ABOVE
       12000 FEET.
       "FAIR" INDICATES FEW OR NO CLOUDS BELOW 12,000 FEET WITH NO
       SIGNIFICANT WEATHER AND/OR OBSTRUCTIONS TO VISIBILITY.


NEZ001>004-019>022-054>056-202100-
NEBRASKA PANHANDLE

CITY           SKY/WX    TMP DP  RH WIND       PRES   REMARKS
SCOTTSBLUFF    SUNNY     89  63  41 E13G20    30.09F HX  90
ALLIANCE       SUNNY     87  58  37 VRB5      30.09F
CHADRON        SUNNY     92  55  28 S10G23    30.03F HX  90
GORDON         FAIR      87  64  46 SE8       30.08F
KIMBALL        SUNNY     88  56  33 N3        30.15F
SIDNEY         SUNNY     92  56  29 NE9G20    30.12F HX  90
$$

NEZ057>060-069>072-079>082-202100-
SOUTHWEST NEBRASKA

CITY           SKY/WX    TMP DP  RH WIND       PRES   REMARKS
NORTH PLATTE   SUNNY     93  68  43 E14       30.01F HX  97
IMPERIAL       SUNNY     97  53  22 VRB6      30.00F HX  94
LEXINGTON      MOSUNNY   87  72  60 E7        30.01S HX  93
MCCOOK         MOSUNNY   98  64  32 E10       29.96F HX 100
OGALLALA       SUNNY     90  61  37 E12       30.06F HX  90
$$

NEZ005>010-023>029-035>040-094-202100-
NORTH CENTRAL NEBRASKA

CITY           SKY/WX    TMP DP  RH WIND       PRES   REMARKS
VALENTINE      SUNNY     98  56  24 NE6       30.00F HX  96
AINSWORTH      PTSUNNY   87  65  47 SE10      30.04F
BROKEN BOW     PTSUNNY   88  67  49 E16       30.01F HX  91
O`NEILL        CLOUDY    82  74  76 CALM      30.04S
ORD            CLOUDY    88  66  48 E10       29.99F HX  90
THEDFORD       PTSUNNY   88  63  43 E10       30.06F
$$

NEZ041-046>049-061>064-073>077-083>087-202100-
SOUTH CENTRAL NEBRASKA

CITY           SKY/WX    TMP DP  RH WIND       PRES   REMARKS
GRAND ISLAND   MOSUNNY   88  74  63 SE9       29.99F HX  96
AURORA         PTSUNNY   88  72  58 E8        29.99F HX  95
HASTINGS       SUNNY     90  70  51 SE8       29.99F HX  95
HEBRON         MOSUNNY   95  73  48 E3        29.97F HX 103
HOLDREGE       MOSUNNY   89  68  50 E6        29.99F HX  92
KEARNEY        MOSUNNY   89  73  59 SE6       30.00F HX  97
YORK           PTSUNNY   88  73  62 SE8       29.98F HX  96
$$

NEZ011>018-030>034-042>045-202100-
NORTHEAST NEBRASKA

CITY           SKY/WX    TMP DP  RH WIND       PRES   REMARKS
NORFOLK        MOSUNNY   87  74  64 NE16      29.97F HX  95
ALBION         MOSUNNY   90  71  53 E8        30.00F HX  96
BLAIR          SUNNY     96  72  45 CALM      29.96F HX 103
COLUMBUS       CLOUDY    90  75  61 E8        29.98F HX 100
FREMONT        MOSUNNY   95  71  45 E9        29.96F HX 101
TEKAMAH        SUNNY     95  74  50 SE6       29.95S HX 105
WAYNE          CLOUDY    88  80  77 N7        30.01R HX 104
$$

NEZ050>053-065>068-078-088>093-202100-
SOUTHEAST NEBRASKA

CITY           SKY/WX    TMP DP  RH WIND       PRES   REMARKS
LINCOLN        SUNNY     93  74  53 S7        29.96F HX 103
OMAHA EPPLEY   MOSUNNY   97  72  44 SE5       29.95R HX 105
BEATRICE       SUNNY     96  75  51 SE8       29.97F HX 108
FALLS CITY     SUNNY     96  74  48 S12       29.95F HX 107
NEBRASKA CITY  SUNNY     92  78  65 SW7       29.97F HX 107
PLATTSMOUTH    SUNNY     91  74  57 S7        29.97F HX 101
$$

NEZ044-045-051>053-067-202100-
OMAHA AREA

CITY           SKY/WX    TMP DP  RH WIND       PRES   REMARKS
OMAHA EPPLEY   MOSUNNY   97  72  44 SE5       29.95R HX 105
BLAIR          SUNNY     96  72  45 CALM      29.96F HX 103
FREMONT        MOSUNNY   95  71  45 E9        29.96F HX 101
MILLARD        MOSUNNY   95  76  53 S6        29.96S HX 109
OFFUTT AFB     SUNNY     93  74  53 S7        29.95F HX 103
PLATTSMOUTH    SUNNY     91  74  57 S7        29.97F HX 101
WAHOO          FAIR      95  72  48 SE6       29.96S HX 103
$$




USA.gov is the U.S. government's official web portal to all federal, state and local government web resources and services.